Group_Ship,Cruise ID,JD_GMT,DATE_UTC__ddmmyyyy,TIME_UTC_hh:mm:ss,LAT_dec_degree,LONG_dec_degree,xCO2_EQU_ppm,xCO2_ATM_ppm,xCO2_ATM_interpolated_ppm,PRES_EQU_hPa,PRES_ATM@SSP_hPa,TEMP_EQU_C,SST_C,SAL_permil,fCO2_SW@SST_uatm,fCO2_ATM_interpolated_uatm,dfCO2_uatm,WOCE_QC_FLAG,QC_SUBFLAG
AOML_Explorer,Ex0839,336.80413,1122008,19:17:57,33.98272667,-71.14562333,-9,384.88,-9,1011,1011.2,29.27,21.3229,0.1657,-9,-9,-9,3,anomalous DT (+1oC)
AOML_Explorer,Ex0839,336.80572,1122008,19:20:14,33.96947833,-71.14109333,-9,384.89,-9,1010.9,1011.4,29.23,21.3389,0.1657,-9,-9,-9,3,anomalous DT (+1oC)
AOML_Explorer,Ex0839,336.80729,1122008,19:22:30,33.95661333,-71.13666,-9,385.04,-9,1010.8,1011.1,29.24,21.3524,0.1657,-9,-9,-9,3,anomalous DT (+1oC)
AOML_Explorer,Ex0839,336.80888,1122008,19:24:47,33.943545,-71.13199,-9,384.88,-9,1010.7,1011.7,29.23,21.3622,0.1656,-9,-9,-9,3,anomalous DT (+1oC)
AOML_Explorer,Ex0839,336.81214,1122008,19:29:29,33.91653167,-71.12283833,839.23,-9,384.934,1011.4,1012.2,29.23,21.3748,0.1656,575.018,374.156,200.862,3,out of standard range
AOML_Explorer,Ex0839,336.81407,1122008,19:32:16,33.90044833,-71.117505,816.11,-9,384.942,1011.5,1011.4,29.22,21.3793,0.1656,559.593,373.86,185.733,3,out of standard range
AOML_Explorer,Ex0839,336.816,1122008,19:35:02,33.88407,-71.11211,783.55,-9,384.951,1011.3,1012,29.08,21.3751,0.1663,540.429,374.097,166.332,3,out of standard range
AOML_Explorer,Ex0839,336.81793,1122008,19:37:49,33.86804333,-71.10685667,731.68,-9,384.959,1011.5,1012.6,28.85,21.375,0.1656,509.963,374.332,135.632,3,out of standard range
AOML_Explorer,Ex0839,336.81985,1122008,19:40:35,33.85171333,-71.10158333,722.28,-9,384.967,1011.5,1012.6,28.62,21.3786,0.1659,508.681,374.338,134.344,3,out of standard range
AOML_Explorer,Ex0839,336.82177,1122008,19:43:21,33.83580833,-71.09639833,640.45,-9,384.976,1012.2,1012.5,28.39,21.3581,0.1661,455.633,374.32,81.313,3,out of standard range
AOML_Explorer,Ex0839,336.82394,1122008,19:46:28,33.81778667,-71.09064167,601.16,-9,384.985,1012,1011.9,28.17,21.3187,0.1661,431.087,374.125,56.962,3,out of standard range
AOML_Explorer,Ex0839,336.82587,1122008,19:49:15,33.80151833,-71.08549333,564.23,-9,384.993,1012,1012,28,21.2568,0.1661,406.613,374.206,32.407,3,out of standard range
AOML_Explorer,Ex0839,336.82779,1122008,19:52:01,33.78546833,-71.08039167,554.78,-9,385.002,1011.7,1011.9,27.84,21.1842,0.1661,401.303,374.218,27.084,3,out of standard range
AOML_Explorer,Ex0839,336.82971,1122008,19:54:47,33.76910333,-71.07522,551.36,-9,385.01,1012.3,1012.2,27.74,21.1315,0.1662,399.961,374.369,25.592,3,out of standard range
AOML_Explorer,Ex0839,336.83164,1122008,19:57:34,33.75299667,-71.07018333,537.03,-9,385.019,1011.9,1012,27.67,21.0909,0.1662,389.951,374.325,15.626,3,out of standard range
AOML_Explorer,Ex0839,336.83358,1122008,20:00:21,33.736745,-71.06497167,474.54,-9,385.027,1011.9,1012.4,27.74,21.0803,0.1661,343.349,374.49,-31.141,3,out of standard range
AOML_Explorer,Ex0839,336.91264,1122008,21:54:12,33.077605,-70.82856,-9,385.22,-9,1015.1,1014.8,22.18,21.1889,36.4875,-9,-9,-9,2,
AOML_Explorer,Ex0839,336.91421,1122008,21:56:28,33.0646,-70.82403333,-9,385.38,-9,1014.2,1014.4,21.32,21.1826,36.5026,-9,-9,-9,2,
AOML_Explorer,Ex0839,336.91579,1122008,21:58:44,33.05165167,-70.81940333,-9,385.4,-9,1014,1014.5,22.53,21.1884,36.4294,-9,-9,-9,3,anomalous DT (+1oC)
AOML_Explorer,Ex0839,336.91737,1122008,22:01:01,33.03844,-70.81477167,-9,385.4,-9,1014.3,1014.5,23.97,21.2006,36.1858,-9,-9,-9,3,anomalous DT (+1oC)
AOML_Explorer,Ex0839,336.91895,1122008,22:03:17,33.02513333,-70.81014333,-9,385.52,-9,1014.4,1014.5,24.78,21.2013,36.0793,-9,-9,-9,3,anomalous DT (+1oC)
AOML_Explorer,Ex0839,336.92995,1122008,22:19:08,32.93375167,-70.77771167,344.66,-9,385.404,1015.2,1015.8,21.35,21.1724,36.5117,333.216,376.275,-43.06,2,
AOML_Explorer,Ex0839,336.93382,1122008,22:24:42,32.90154333,-70.76653,342.04,-9,385.409,1014.9,1015.3,21.26,21.1517,36.4903,331.598,376.103,-44.505,2,
AOML_Explorer,Ex0839,336.93574,1122008,22:27:28,32.88556667,-70.761045,341.99,-9,385.412,1015,1016,21.24,21.1228,36.5313,331.468,376.386,-44.919,2,
AOML_Explorer,Ex0839,336.93767,1122008,22:30:15,32.86939333,-70.75542167,343.25,-9,385.414,1015.5,1015.8,21.24,21.1149,36.5173,332.746,376.318,-43.572,2,
AOML_Explorer,Ex0839,336.93959,1122008,22:33:01,32.85367167,-70.74975167,342.89,-9,385.417,1015.2,1015.8,21.26,21.1209,36.5126,332.089,376.317,-44.227,2,
AOML_Explorer,Ex0839,336.94153,1122008,22:35:48,32.83762833,-70.74403,342.72,-9,385.42,1015.3,1015.7,21.28,21.139,36.5074,331.922,376.272,-44.35,2,
AOML_Explorer,Ex0839,336.94347,1122008,22:38:36,32.82149,-70.73838167,341.13,-9,385.422,1015.4,1015.4,21.34,21.1653,36.5001,329.915,376.146,-46.231,2,
AOML_Explorer,Ex0839,336.94734,1122008,22:44:10,32.78942167,-70.72707667,341.11,-9,385.428,1015.3,1015.8,21.32,21.2009,36.5013,330.649,376.283,-45.634,2,
AOML_Explorer,Ex0839,336.9495,1122008,22:47:17,32.771005,-70.72078167,340.82,-9,385.431,1015.3,1016,21.31,21.1919,36.4987,330.386,376.366,-45.98,2,
AOML_Explorer,Ex0839,336.95144,1122008,22:50:04,32.75505167,-70.71498333,342.26,-9,385.433,1015.4,1016.1,21.51,21.2335,36.4929,329.501,376.383,-46.883,2,
AOML_Explorer,Ex0839,336.95337,1122008,22:52:51,32.73887667,-70.70904333,343.75,-9,385.436,1015.6,1015.7,21.62,21.3754,36.5236,331.394,376.155,-44.761,2
AOML_Explorer,Ex0839,336.95531,1122008,22:55:39,32.72258,-70.70324167,344.68,-9,385.439,1015.6,1016.2,21.64,21.4545,36.5313,333.112,376.302,-43.19,2
AOML_Explorer,Ex0839,336.95723,1122008,22:58:25,32.706615,-70.69744167,344.7,-9,385.441,1015.8,1016.1,21.63,21.4844,36.5296,333.766,376.25,-42.484,2
AOML_Explorer,Ex0839,336.95917,1122008,23:01:12,32.69043,-70.69168833,343.48,-9,385.444,1016.1,1016.1,21.64,21.4968,36.532,332.715,376.246,-43.531,2
AOML_Explorer,Ex0839,336.9611,1122008,23:03:59,32.67407667,-70.68587167,343.3,-9,385.447,1016,1016.7,21.64,21.5052,36.5338,332.624,376.47,-43.846,2
AOML_Explorer,Ex0839,336.96302,1122008,23:06:45,32.65796,-70.68030667,343.69,-9,385.449,1016.1,1015.9,21.62,21.5006,36.5312,333.264,376.173,-42.909,2
AOML_Explorer,Ex0839,336.96495,1122008,23:09:32,32.64175167,-70.67452,344.26,-9,385.452,1016.2,1016.9,21.62,21.4849,36.5363,333.627,376.563,-42.935,2
AOML_Explorer,Ex0839,336.96689,1122008,23:12:19,32.62609833,-70.66903167,343.26,-9,385.455,1016.2,1016.4,21.67,21.5082,36.5374,332.258,376.363,-44.105,2
AOML_Explorer,Ex0839,336.96882,1122008,23:15:06,32.61005833,-70.66340333,345.46,-9,385.457,1016.1,1016.5,21.68,21.5315,36.5347,334.537,376.39,-41.853,2
AOML_Explorer,Ex0839,336.97075,1122008,23:17:53,32.59407833,-70.65777167,343.22,-9,385.46,1015.8,1016.2,21.7,21.5435,36.5352,332.145,376.273,-44.128,2
AOML_Explorer,Ex0839,336.97267,1122008,23:20:39,32.57834667,-70.65222167,345.04,-9,385.463,1016.2,1016.3,21.69,21.549,36.5331,334.265,376.31,-42.045,2
AOML_Explorer,Ex0839,336.97461,1122008,23:23:26,32.56225167,-70.646575,343.85,-9,385.465,1016.2,1015.9,21.68,21.5509,36.5326,333.285,376.16,-42.875,2
AOML_Explorer,Ex0839,336.97846,1122008,23:28:59,32.530185,-70.63551333,345.02,-9,385.471,1015.9,1016.1,21.66,21.5413,36.5286,334.475,376.246,-41.771,2
AOML_Explorer,Ex0839,336.98039,1122008,23:31:46,32.514145,-70.63003167,344.45,-9,385.473,1016.1,1016,21.64,21.5307,36.5257,334.133,376.217,-42.084,2
AOML_Explorer,Ex0839,336.98231,1122008,23:34:32,32.49780167,-70.62452667,344.63,-9,385.476,1016.6,1016.1,21.68,21.5272,36.5513,333.841,376.26,-42.419,2
AOML_Explorer,Ex0839,336.98425,1122008,23:37:19,32.481875,-70.61928333,345.83,-9,385.479,1016.2,1016.5,21.72,21.5614,36.5576,334.765,376.394,-41.629,2
AOML_Explorer,Ex0839,336.98617,1122008,23:40:05,32.46577833,-70.61378833,345.27,-9,385.481,1016.5,1016.6,21.66,21.5528,36.5292,335.083,376.439,-41.357,2
AOML_Explorer,Ex0839,336.99002,1122008,23:45:38,32.4339,-70.602525,344.1,-9,385.487,1016.5,1016.4,21.67,21.5374,36.5312,333.584,376.378,-42.794,2
AOML_Explorer,Ex0839,336.99219,1122008,23:48:45,32.415815,-70.59609167,343.34,-9,385.49,1016.5,1016.6,21.66,21.5374,36.5331,332.993,376.456,-43.464,2
AOML_Explorer,Ex0839,336.99412,1122008,23:51:32,32.39947,-70.590255,343.77,-9,385.492,1016.7,1016.5,21.67,21.5336,36.5296,333.277,376.423,-43.146,2
AOML_Explorer,Ex0839,336.99604,1122008,23:54:18,32.38332333,-70.584635,345.12,-9,385.495,1016.9,1016.6,21.65,21.5308,36.535,334.907,376.465,-41.558,2
AOML_Explorer,Ex0839,336.99797,1122008,23:57:05,32.366905,-70.57882667,344.42,-9,385.498,1016.8,1017,21.64,21.5251,36.534,334.26,376.622,-42.362,2
AOML_Explorer,Ex0839,336.9999,1122008,23:59:51,32.35095667,-70.57318333,342.6,-9,385.5,1017.6,1016.9,21.66,21.5222,36.5344,332.43,376.589,-44.159,2
AOML_Explorer,Ex0839,337.00183,2122008,0:02:38,32.33482167,-70.567375,342.03,-9,385.503,1017,1016.5,21.66,21.5272,36.532,331.746,376.437,-44.691,2
AOML_Explorer,Ex0839,337.00569,2122008,0:08:12,32.30264833,-70.55599167,342.91,-9,385.508,1016.6,1016.5,21.63,21.5232,36.5227,332.847,376.445,-43.598,2
AOML_Explorer,Ex0839,337.00763,2122008,0:10:59,32.28640167,-70.54995333,343.78,-9,385.511,1016.8,1016.8,21.77,21.5842,36.5171,332.574,376.526,-43.952,2
AOML_Explorer,Ex0839,337.02247,2122008,0:32:21,32.16319,-70.51072833,-9,385.56,-9,1017.2,1016.8,21.83,21.693,36.542,-9,-9,-9,2
AOML_Explorer,Ex0839,337.02405,2122008,0:34:38,32.14996167,-70.50673833,-9,385.72,-9,1017.4,1017,21.85,21.7034,36.5402,-9,-9,-9,2
AOML_Explorer,Ex0839,337.02562,2122008,0:36:54,32.137,-70.50293833,-9,385.51,-9,1017,1016.7,21.84,21.7146,36.5422,-9,-9,-9,2
AOML_Explorer,Ex0839,337.0272,2122008,0:39:10,32.12404,-70.499005,-9,385.39,-9,1016.8,1016.7,21.83,21.7146,36.5436,-9,-9,-9,2
AOML_Explorer,Ex0839,337.02878,2122008,0:41:27,32.11074333,-70.494915,-9,385.5,-9,1017.1,1017,21.79,21.6966,36.5424,-9,-9,-9,2
AOML_Explorer,Ex0839,337.03205,2122008,0:46:09,32.08347667,-70.48687333,344.18,-9,385.498,1017.2,1017,21.81,21.6832,36.5375,333.907,376.532,-42.626,2
AOML_Explorer,Ex0839,337.03421,2122008,0:49:16,32.06542667,-70.48163,345.38,-9,385.486,1017.1,1016.8,21.85,21.7054,36.5432,334.765,376.432,-41.667,2
AOML_Explorer,Ex0839,337.03615,2122008,0:52:03,32.04904167,-70.476815,346.66,-9,385.474,1017,1016.8,21.84,21.7175,36.5384,336.291,376.414,-40.123,2
AOML_Explorer,Ex0839,337.03807,2122008,0:54:49,32.032995,-70.472035,346.84,-9,385.463,1016.9,1016.8,21.82,21.7155,36.5382,336.698,376.404,-39.706,2
AOML_Explorer,Ex0839,337.04,2122008,0:57:36,32.01662167,-70.46711167,345.74,-9,385.451,1016.9,1016.7,21.83,21.7087,36.5402,335.387,376.359,-40.972,2
AOML_Explorer,Ex0839,337.04193,2122008,1:00:23,32.00038,-70.46186833,346.09,-9,385.44,1017.4,1016.9,21.84,21.7136,36.5384,335.818,376.42,-40.603,2
AOML_Explorer,Ex0839,337.04387,2122008,1:03:10,31.984575,-70.456055,346.13,-9,385.429,1017.3,1017.2,21.83,21.7177,36.536,336.028,376.52,-40.492,2
AOML_Explorer,Ex0839,337.0458,2122008,1:05:57,31.96846,-70.45025,345.94,-9,385.417,1017.5,1017.1,21.84,21.7089,36.5388,335.639,376.476,-40.837,2
AOML_Explorer,Ex0839,337.04773,2122008,1:08:44,31.95233333,-70.44431333,344.94,-9,385.406,1017.6,1017.4,21.81,21.6984,36.5439,334.994,376.585,-41.591,2
AOML_Explorer,Ex0839,337.04965,2122008,1:11:30,31.93650667,-70.438565,344.34,-9,385.395,1017.4,1017.1,21.81,21.6929,36.546,334.266,376.463,-42.197,2
AOML_Explorer,Ex0839,337.05159,2122008,1:14:17,31.92035833,-70.43303833,345.13,-9,385.383,1017.4,1016.9,21.8,21.6899,36.5465,335.138,376.379,-41.241,2
AOML_Explorer,Ex0839,337.05351,2122008,1:17:03,31.90453667,-70.42774667,345.24,-9,385.372,1017.3,1017.1,21.8,21.6897,36.5451,335.208,376.443,-41.235,2
AOML_Explorer,Ex0839,337.05544,2122008,1:19:50,31.888495,-70.42219667,345.23,-9,385.361,1017.3,1016.8,21.81,21.6892,36.5467,335.044,376.319,-41.275,2
AOML_Explorer,Ex0839,337.05737,2122008,1:22:37,31.87271167,-70.41689333,345.25,-9,385.349,1017.2,1016.9,21.82,21.6938,36.545,334.948,376.343,-41.395,2
AOML_Explorer,Ex0839,337.05929,2122008,1:25:23,31.85666333,-70.41146833,345.3,-9,385.338,1017.5,1017.2,21.82,21.6989,36.5442,335.17,376.442,-41.272,2
AOML_Explorer,Ex0839,337.06124,2122008,1:28:11,31.84059833,-70.40613167,345.43,-9,385.326,1017.5,1017.4,21.81,21.6971,36.5425,335.418,376.508,-41.09,2
AOML_Explorer,Ex0839,337.06316,2122008,1:30:57,31.82485667,-70.400825,345.55,-9,385.315,1017.5,1017.2,21.83,21.7009,36.5502,335.294,376.419,-41.125,2
AOML_Explorer,Ex0839,337.06509,2122008,1:33:44,31.80889667,-70.39547833,345.72,-9,385.304,1017.7,1017.3,21.86,21.7183,36.5565,335.332,376.436,-41.103,2
AOML_Explorer,Ex0839,337.06701,2122008,1:36:30,31.79323167,-70.38999833,344.93,-9,385.292,1017.7,1017.5,21.87,21.7402,36.5589,334.729,376.488,-41.758,2
AOML_Explorer,Ex0839,337.06895,2122008,1:39:17,31.77734,-70.38447833,344.84,-9,385.281,1017.8,1017.5,21.93,21.7632,36.577,334.121,376.463,-42.342,2
AOML_Explorer,Ex0839,337.07088,2122008,1:42:04,31.76174,-70.37913167,344.15,-9,385.27,1017.4,1017.8,21.96,21.8247,36.5807,333.747,376.53,-42.783,2
AOML_Explorer,Ex0839,337.07281,2122008,1:44:51,31.745785,-70.37362833,344.25,-9,385.258,1017.5,1017.9,22.03,21.8646,36.6022,333.417,376.534,-43.117,2
AOML_Explorer,Ex0839,337.075,2122008,1:48:00,31.72777333,-70.36747167,343.83,-9,385.245,1017.7,1017.6,22.04,21.9036,36.6024,333.481,376.385,-42.904,2
AOML_Explorer,Ex0839,337.07692,2122008,1:50:46,31.71210667,-70.36209167,343.85,-9,385.234,1017.7,1017,21.98,21.8879,36.5882,334.158,376.157,-41.999,2
AOML_Explorer,Ex0839,337.07884,2122008,1:53:32,31.69609833,-70.35667167,343.99,-9,385.223,1017.8,1017.2,21.97,21.8455,36.5897,333.874,376.246,-42.371,2
AOML_Explorer,Ex0839,337.08079,2122008,1:56:20,31.68008,-70.35129667,344.8,-9,385.211,1017.7,1017.2,22.01,21.8609,36.5992,334.258,376.226,-41.968,2
AOML_Explorer,Ex0839,337.08271,2122008,1:59:06,31.66432,-70.34602833,344.21,-9,385.2,1017.9,1017.4,22,21.8753,36.6016,334.103,376.282,-42.179,2
AOML_Explorer,Ex0839,337.08464,2122008,2:01:53,31.64836,-70.34070833,343.56,-9,385.189,1018,1017.5,22.02,21.8899,36.5992,333.419,376.3,-42.881,2
AOML_Explorer,Ex0839,337.08657,2122008,2:04:40,31.632695,-70.33545667,343.44,-9,385.177,1017.5,1017.3,22.07,21.9123,36.6148,332.72,376.201,-43.48,2
AOML_Explorer,Ex0839,337.08852,2122008,2:07:28,31.61668333,-70.33006667,343.2,-9,385.166,1017.9,1017.5,22.16,21.9692,36.6241,332.11,376.232,-44.122,2
AOML_Explorer,Ex0839,337.09044,2122008,2:10:14,31.60057333,-70.32459,342.98,-9,385.154,1017.8,1017.4,22.22,22.0389,36.6237,331.969,376.142,-44.174,2
AOML_Explorer,Ex0839,337.09237,2122008,2:13:01,31.58441333,-70.31904167,342.81,-9,385.143,1017.6,1017.2,22.24,22.0841,36.6249,332.081,376.029,-43.949,2
AOML_Explorer,Ex0839,337.09431,2122008,2:15:48,31.568565,-70.31373333,342.71,-9,385.132,1017.8,1017.4,22.26,22.1144,36.6298,332.185,376.076,-43.891,2
AOML_Explorer,Ex0839,337.09623,2122008,2:18:34,31.55245333,-70.30835333,342.78,-9,385.12,1018,1017.2,22.3,22.1446,36.6416,332.161,375.972,-43.81,2
AOML_Explorer,Ex0839,337.09817,2122008,2:21:22,31.53635333,-70.30289,343.49,-9,385.109,1018.2,1017.4,22.33,22.1786,36.6427,332.957,376.016,-43.059,2
AOML_Explorer,Ex0839,337.10012,2122008,2:24:10,31.52019833,-70.29762833,344.04,-9,385.098,1018,1017.4,22.36,22.2146,36.652,333.492,375.984,-42.492,2
AOML_Explorer,Ex0839,337.10204,2122008,2:26:56,31.504425,-70.2926,344.2,-9,385.086,1018.1,1017.3,22.37,22.2323,36.6492,333.784,375.924,-42.141,2
AOML_Explorer,Ex0839,337.10397,2122008,2:29:43,31.488475,-70.28736,344.33,-9,385.075,1018,1017,22.38,22.2449,36.6497,333.908,375.793,-41.885,2
AOML_Explorer,Ex0839,337.1059,2122008,2:32:30,31.47275,-70.28232833,344.51,-9,385.063,1018.1,1017.1,22.39,22.2526,36.6393,334.078,375.815,-41.737,2
AOML_Explorer,Ex0839,337.10782,2122008,2:35:16,31.45681667,-70.27722167,344.78,-9,385.052,1018,1017.2,22.38,22.2563,36.6534,334.505,375.839,-41.334,2
AOML_Explorer,Ex0839,337.10976,2122008,2:38:03,31.44107333,-70.27212667,342.74,-9,385.041,1018.3,1017.3,22.3,22.2205,36.6164,333.291,375.887,-42.596,2
AOML_Explorer,Ex0839,337.11168,2122008,2:40:49,31.42504167,-70.26708333,342.12,-9,385.029,1018,1017.3,22.29,22.1892,36.6285,332.293,375.894,-43.601,2
AOML_Explorer,Ex0839,337.1136,2122008,2:43:35,31.40919667,-70.26222167,342.94,-9,385.018,1018,1017.2,22.3,22.1829,36.6333,332.855,375.849,-42.994,2
AOML_Explorer,Ex0839,337.11553,2122008,2:46:22,31.39303,-70.25719167,343.08,-9,385.007,1017.9,1017.2,22.29,22.1767,36.6388,333.016,375.842,-42.826,2
AOML_Explorer,Ex0839,337.11771,2122008,2:49:30,31.375195,-70.25138667,342.91,-9,384.994,1018.3,1017.6,22.28,22.1801,36.6268,333.179,375.978,-42.799,2
AOML_Explorer,Ex0839,337.13255,2122008,3:10:52,31.25349167,-70.212215,-9,384.79,-9,1018.2,1017.8,22.38,22.2405,36.6387,-9,-9,-9,2
AOML_Explorer,Ex0839,337.13413,2122008,3:13:09,31.2403,-70.20799167,-9,384.79,-9,1018.4,1017.8,22.4,22.2595,36.6387,-9,-9,-9,2
AOML_Explorer,Ex0839,337.13571,2122008,3:15:25,31.22745167,-70.20360667,-9,384.88,-9,1018.1,1017.8,22.41,22.2734,36.6379,-9,-9,-9,2
AOML_Explorer,Ex0839,337.13729,2122008,3:17:42,31.214295,-70.19921333,-9,384.99,-9,1018.1,1017.7,22.41,22.2839,36.6377,-9,-9,-9,2
AOML_Explorer,Ex0839,337.13887,2122008,3:19:58,31.20137833,-70.19483667,-9,384.99,-9,1018.4,1017.8,22.42,22.2912,36.6324,-9,-9,-9,2
AOML_Explorer,Ex0839,337.14214,2122008,3:24:41,31.17414,-70.18566167,343.54,-9,384.883,1018.3,1017.7,22.4,22.2973,36.6124,333.688,375.838,-42.15,2
AOML_Explorer,Ex0839,337.14406,2122008,3:27:27,31.15839,-70.17999833,344.15,-9,384.881,1018.9,1017.6,22.41,22.2936,36.63,334.284,375.801,-41.517,2
AOML_Explorer,Ex0839,337.14598,2122008,3:30:13,31.14271667,-70.17427667,343.64,-9,384.88,1018.4,1017.7,22.39,22.2881,36.6212,333.836,375.841,-42.005,2
AOML_Explorer,Ex0839,337.14791,2122008,3:32:59,31.12676333,-70.1685,343.85,-9,384.878,1018.8,1017.7,22.38,22.2704,36.622,334.071,375.85,-41.779,2
AOML_Explorer,Ex0839,337.14983,2122008,3:35:45,31.111085,-70.16288167,343.2,-9,384.877,1018.3,1017.6,22.36,22.2617,36.6101,333.441,375.816,-42.374,2
AOML_Explorer,Ex0839,337.15176,2122008,3:38:32,31.09519333,-70.15720167,343.45,-9,384.875,1018.8,1017.6,22.32,22.2423,36.5878,334.164,375.825,-41.661,2
AOML_Explorer,Ex0839,337.15368,2122008,3:41:18,31.07964667,-70.15160667,342.4,-9,384.874,1018.6,1017.8,22.33,22.2174,36.6172,332.579,375.914,-43.335,2
AOML_Explorer,Ex0839,337.1556,2122008,3:44:04,31.06415167,-70.14588333,343.02,-9,384.872,1019,1017.4,22.32,22.2105,36.6072,333.365,375.766,-42.401,2
AOML_Explorer,Ex0839,337.15753,2122008,3:46:51,31.048285,-70.14011333,342.67,-9,384.87,1018.6,1017.5,22.33,22.2109,36.6134,332.75,375.802,-43.052,2
AOML_Explorer,Ex0839,337.15972,2122008,3:50:00,31.03035,-70.13366167,342.77,-9,384.869,1018.4,1017.7,22.33,22.2157,36.6168,332.847,375.873,-43.025,2
AOML_Explorer,Ex0839,337.16166,2122008,3:52:47,31.01444333,-70.12783667,343.08,-9,384.867,1018.5,1017.6,22.33,22.2192,36.6196,333.231,375.831,-42.6,2
AOML_Explorer,Ex0839,337.16358,2122008,3:55:33,30.99877667,-70.12214333,343.16,-9,384.866,1018.3,1017.7,22.32,22.2167,36.6057,333.353,375.869,-42.516,2
AOML_Explorer,Ex0839,337.16551,2122008,3:58:20,30.98277,-70.11629333,342.97,-9,384.864,1018.4,1017.6,22.36,22.2212,36.6305,332.681,375.827,-43.146,2
AOML_Explorer,Ex0839,337.16745,2122008,4:01:08,30.966665,-70.11047833,343.35,-9,384.863,1018.7,1017.7,22.34,22.2314,36.6225,333.587,375.858,-42.271,2
AOML_Explorer,Ex0839,337.16939,2122008,4:03:55,30.95083333,-70.104715,343.05,-9,384.861,1018.6,1017.7,22.31,22.2163,36.6289,333.487,375.865,-42.378,2
AOML_Explorer,Ex0839,337.17132,2122008,4:06:42,30.934735,-70.098895,343.1,-9,384.86,1018.4,1017.6,22.33,22.2096,36.6335,333.082,375.83,-42.748,2
AOML_Explorer,Ex0839,337.17324,2122008,4:09:28,30.91894167,-70.09295833,343.38,-9,384.858,1018.7,1017.6,22.45,22.2337,36.6404,332.042,375.814,-43.772,2
AOML_Explorer,Ex0839,337.17517,2122008,4:12:15,30.902755,-70.08689167,345.24,-9,384.856,1019,1017.5,22.5,22.3111,36.6438,334.302,375.729,-41.427,2
AOML_Explorer,Ex0839,337.17709,2122008,4:15:01,30.88692333,-70.080855,345.42,-9,384.855,1018.6,1017.5,22.52,22.362,36.6472,334.768,375.697,-40.929,2
AOML_Explorer,Ex0839,337.17903,2122008,4:17:48,30.870775,-70.07485833,345.76,-9,384.853,1018.6,1017.6,22.51,22.3803,36.6429,335.504,375.723,-40.218,2
AOML_Explorer,Ex0839,337.18096,2122008,4:20:35,30.85464833,-70.068785,345.6,-9,384.852,1018.6,1018,22.5,22.3793,36.6401,335.481,375.873,-40.391,2
AOML_Explorer,Ex0839,337.18288,2122008,4:23:21,30.83877667,-70.06288167,345.6,-9,384.85,1018.8,1017.7,22.5,22.3775,36.6395,335.524,375.759,-40.235,2
AOML_Explorer,Ex0839,337.18481,2122008,4:26:08,30.82258167,-70.056655,345.59,-9,384.849,1018.7,1017.7,22.49,22.3734,36.6426,335.569,375.76,-40.19,2
AOML_Explorer,Ex0839,337.18675,2122008,4:28:55,30.806635,-70.05066167,345.39,-9,384.847,1018.9,1017.6,22.47,22.3626,36.6439,335.584,375.727,-40.143,2
AOML_Explorer,Ex0839,337.18868,2122008,4:31:42,30.790425,-70.04464167,345.22,-9,384.846,1019.1,1017.8,22.46,22.3487,36.6394,335.436,375.809,-40.373,2
AOML_Explorer,Ex0839,337.1906,2122008,4:34:28,30.77444833,-70.03876,344.46,-9,384.844,1019.2,1017.9,22.31,22.2989,36.6298,336.233,375.875,-39.642,2
AOML_Explorer,Ex0839,337.19253,2122008,4:37:15,30.75825167,-70.03287833,342.91,-9,384.842,1018.8,1017.7,22.31,22.2304,36.6354,333.618,375.839,-42.221,2
AOML_Explorer,Ex0839,337.19447,2122008,4:40:02,30.74205667,-70.02694,342.84,-9,384.841,1018.8,1017.6,22.27,22.1947,36.622,333.631,375.82,-42.189,2
AOML_Explorer,Ex0839,337.19639,2122008,4:42:48,30.72616333,-70.02119333,342.64,-9,384.839,1018.9,1017.6,22.28,22.1759,36.6344,333.059,375.83,-42.771,2
AOML_Explorer,Ex0839,337.19832,2122008,4:45:35,30.710105,-70.01530167,342.84,-9,384.838,1018.9,1017.5,22.29,22.1747,36.6349,333.09,375.791,-42.701,2
AOML_Explorer,Ex0839,337.2005,2122008,4:48:43,30.692215,-70.00873167,342.64,-9,384.836,1019,1017.5,22.3,22.1794,36.6308,332.85,375.787,-42.937,2
AOML_Explorer,Ex0839,337.20242,2122008,4:51:29,30.67599,-70.00271667,342.68,-9,384.835,1018.9,1017.5,22.31,22.1863,36.6289,332.806,375.781,-42.975,2
AOML_Explorer,Ex0839,337.20435,2122008,4:54:16,30.65996667,-69.99684167,342.6,-9,384.833,1019,1017.6,22.3,22.188,36.6261,332.932,375.817,-42.885,2
AOML_Explorer,Ex0839,337.20628,2122008,4:57:03,30.64356167,-69.99089,342.52,-9,384.832,1018.9,1017.7,22.3,22.1854,36.6321,332.784,375.854,-43.07,2
AOML_Explorer,Ex0839,337.20822,2122008,4:59:50,30.62710667,-69.98491333,342.66,-9,384.83,1019.1,1017.8,22.27,22.1723,36.6388,333.241,375.898,-42.658,2
AOML_Explorer,Ex0839,337.21208,2122008,5:05:24,30.59468833,-69.97308667,342.55,-9,384.827,1019.1,1017.8,22.21,22.124,36.6383,333.33,375.924,-42.594,2
AOML_Explorer,Ex0839,337.214,2122008,5:08:10,30.57872333,-69.96713,342.72,-9,384.825,1018.8,1017.8,22.22,22.1108,36.6408,333.063,375.93,-42.867,2
AOML_Explorer,Ex0839,337.21594,2122008,5:10:57,30.562405,-69.96111333,342.8,-9,384.824,1018.9,1017.5,22.19,22.0949,36.6331,333.389,375.824,-42.436,2
AOML_Explorer,Ex0839,337.21786,2122008,5:13:43,30.546315,-69.95524667,342.88,-9,384.822,1018.9,1017.4,22.17,22.0742,36.6235,333.467,375.797,-42.33,2
AOML_Explorer,Ex0839,337.21981,2122008,5:16:32,30.52972,-69.94887333,343.13,-9,384.821,1018.9,1017.3,22.09,21.999,36.5742,333.819,375.802,-41.982,2
AOML_Explorer,Ex0839,337.22174,2122008,5:19:18,30.51378167,-69.94306333,342.53,-9,384.819,1018.7,1017.5,22.19,22.024,36.6231,332.061,375.861,-43.8,2
AOML_Explorer,Ex0839,337.22367,2122008,5:22:05,30.49749667,-69.93720333,342.49,-9,384.818,1018.8,1017.5,22.22,22.061,36.6256,332.139,375.838,-43.699,2
AOML_Explorer,Ex0839,337.2256,2122008,5:24:52,30.48146167,-69.93138167,342.37,-9,384.816,1018.7,1017.3,22.22,22.0798,36.6134,332.253,375.75,-43.497,2
AOML_Explorer,Ex0839,337.22753,2122008,5:27:39,30.46512333,-69.92540667,342.38,-9,384.815,1018.7,1017.5,22.19,22.0775,36.6137,332.668,375.825,-43.157,2
AOML_Explorer,Ex0839,337.26256,2122008,6:18:05,30.17019167,-69.82893667,-9,384.73,-9,1018.4,1018.2,22.48,22.338,36.6092,-9,-9,-9,2
AOML_Explorer,Ex0839,337.26413,2122008,6:20:21,30.157195,-69.82502167,-9,384.71,-9,1018.3,1018.1,22.48,22.3489,36.6079,-9,-9,-9,2
AOML_Explorer,Ex0839,337.26572,2122008,6:22:38,30.14393167,-69.82101833,-9,384.75,-9,1018.3,1018,22.46,22.3511,36.6202,-9,-9,-9,2